KAIG

Details ICAO KAIG
Name LANGLADE CO
Region United States
Timezone America/Chicago (UTC-5.0)
Plans Departing 0
Arriving 0
Stats Elevation 1,521 ft / 464 m (AMSL)
Location 45.154174° -89.110911°
Runways 2
Magnetic Variation 3.299° W
Sunrise 2018-05-21 10:22:06 UTC / 2018-05-21 05:22:06 Local
Sunset 2018-05-22 01:26:52 UTC / 2018-05-21 20:26:52 Local
Advertisement - Login to hide

Runways

ID Width Length Bearing (true) Bearing (mag) Surface Threshold Offset Overrun Length
08 75 ft / 23 m 3,392 ft / 1,034 m 82.58° 85.88° Asphalt 0 ft / 0 m 0 ft / 0 m
16 75 ft / 23 m 4,004 ft / 1,220 m 163.64° 166.94° Asphalt 0 ft / 0 m 0 ft / 0 m
26 75 ft / 23 m 3,392 ft / 1,034 m 262.59° 265.89° Asphalt 0 ft / 0 m 0 ft / 0 m
34 75 ft / 23 m 4,004 ft / 1,220 m 343.65° 346.95° Asphalt 0 ft / 0 m 0 ft / 0 m

Map

Weather


0- 5 10 15 20 25 30 35+ Temperature / ° C

Clouds and Precipitation
Forecast for 2018-05-21 18:00 UTC. Updated 2 hours ago

Ground ~20,000 ft ~40,000 ft Winds

METAR

KAIG 211855Z AUTO 13007KT 10SM OVC065 15/08 A3014 RMK AO2 T01470075

TAF

Not found

Frequencies

Recorded 119.07 MHz AWOS 3
Unicom 122.80 MHz CTAF/UNICOM
Warning: Do not use this data for real-world aviation or navigation. No guarantee of current accuracy is given.